Flag for United Kingdom Past Weather in Newport (Isle of Wight), England, United Kingdom — Yesterday and Last 2 Weeks

Now
58 °F

Cool.


Feels Like: 54 °F
Forecast: 57 / 61 °F
Wind: 20 mph from Southwest

Location: Saint Catherine's Point

Current Time: Jun 30, 2016 at 2:47:10 AM

Latest Report: Jun 30, 2016 at 2:00 AM


Visibility: N/A

Pressure: 29.78 "Hg

Humidity: 100%

Dew Point: 58 °F

Location of Newport (Isle of Wight)Location

Past Weather in Newport (Isle of Wight) — Graph

°F

Newport (Isle of Wight) Temperature Yesterday

Maximum temperature yesterday: 58 °F (at 3:00 AM)
Minimum temperature yesterday: 57 °F (at 5:00 PM)
Average temperature yesterday: 58 °F

High & Low Weather Summary for the Past Weeks

 TemperatureHumidityPressure
High65 °F (Jun 22, 6:00 PM)100% (Jun 16, 2:00 AM)30.28 "Hg (Jun 16, 2:00 AM)
Low53 °F (Jun 19, 5:00 AM)72% (Jun 19, 1:00 AM)29.38 "Hg (Jun 15, 4:00 AM)
Average59 °F92%29.96 "Hg
* Reported Jun 15 1:00 AM — Jun 30 1:00 AM, Newport (Isle of Wight), Weather by CustomWeather, © 2016

Note: Actual official high and low records may vary slightly from our data, if they occured in-between our weather recording intervals... More about our weather records

Advertising

Newport (Isle of Wight) Weather History for the Previous 24 Hours

Scroll right to see more
 ConditionsComfort  
Time TempWeatherWind HumidityBarometerVisibility
1:00 AM
Thu, Jun 30
58 °FCool.21 mph99%29.79 "HgN/A
12:00 AM57 °FCool.17 mph94%29.80 "HgN/A
11:00 PM
Wed, Jun 29
58 °FCool.21 mph99%29.80 "HgN/A
10:00 PM58 °FCool.20 mph98%29.80 "HgN/A
9:00 PM58 °FCool.21 mph97%29.79 "HgN/A
8:00 PM58 °FCool.22 mph96%29.79 "HgN/A
7:00 PM58 °FCool.24 mph96%29.79 "HgN/A
6:00 PM58 °FCool.24 mph97%29.79 "HgN/A
5:00 PM57 °FCool.24 mph99%29.80 "HgN/A
1:00 PM57 °FCool.24 mph95%29.83 "HgN/A
12:00 PM58 °FCool.22 mph95%29.85 "HgN/A
11:00 AM58 °FCool.21 mph91%29.86 "HgN/A
10:00 AM58 °FCool.21 mph94%29.87 "HgN/A
9:00 AM58 °FCool.16 mph91%29.88 "HgN/A
8:00 AM58 °FCool.20 mph92%29.88 "HgN/A
7:00 AM58 °FCool.21 mph91%29.88 "HgN/A
6:00 AM58 °FCool.17 mph92%29.88 "HgN/A
5:00 AM58 °FCool.20 mph92%29.87 "HgN/A
4:00 AM58 °FCool.21 mph91%29.87 "HgN/A
3:00 AM58 °FCool.22 mph90%29.87 "HgN/A
2:00 AM58 °FCool.23 mph93%29.88 "HgN/A
Weather by CustomWeather, © 2016

See weather overviewHow to use our weather pages